Voltar ao catálogo

STARLINK-34335

AtivoComunicaçõesVLEO
NORAD 64362·PAYLOAD·🇺🇸 United States

Lançado Jun 13, 2025 de Vandenberg Space Force Base

Loading…

Próximas Passagens (próximas 24 horas)

TLE

AtualizadoSource: CelesTrak SupGP

Época: Sep 15, 2026, 02:59 UTC

1 64362C 25126U   26258.12479167 -.00022571  00000+0 -78504-3 0  2580
2 64362  70.0006 275.3323 0003449 266.7461 133.8645 15.29594891    17

Acompanhe STARLINK-34335 em tempo real com AllMySat

Download on the App Store